Weather History for KHIF - January, 2013

Change the Weather History Date:

Wednesday, January 2, 2013

  Actual Average Record
Temperature  
Mean Temperature 14 °F -  
Max Temperature 19 °F 34 °F 51 °F (1997)
Min Temperature 8 °F 22 °F 6 °F (2011)
Degree Days  
Heating Degree Days 52    
Moisture  
Dew Point 6 °F    
Average Humidity 80    
Maximum Humidity 92    
Minimum Humidity 69    
Precipitation  
Precipitation 0.00 in - - ()
Sea Level Pressure  
Sea Level Pressure 30.45 in    
Wind  
Wind Speed 8 mph (ESE)    
Max Wind Speed 13 mph    
Max Gust Speed -    
Visibility 8 miles    
Events Snow    
Averages and records for this station are not official NWS values.
T = Trace of Precipitation, MM = Missing Value Source: NWS Daily Summary

Daily Weather History Graph

Daily Weather History Graph

Search for Another Location

Airport or City:

Trip Planner

Search our weather history database for the weather conditions in past years. The results will help you decide how hot, cold, wet, or windy it might be!

Date:

Astronomy

Jan. 02, 2013 Rise Set
Actual Time 7:53 AM MST 5:11 PM MST
Civil Twilight 7:22 AM MST 5:42 PM MST
Nautical Twilight 6:47 AM MST 6:16 PM MST
Astronomical Twilight 6:14 AM MST 6:50 PM MST
Moon 10:50 PM MST (1/2) 10:33 AM MST (1/2)
Length of Visible Light 10h 19m
Length of Day
9h 17m
Waning Gibbous, 74% of the Moon is Illuminated
Jan 2
Waning Gibbous
Jan 4
Last Quarter
Jan 11
New
Jan 18
First Quarter
Jan 26
Full

Hourly Weather History & Observations

Time (MST) Temp. Windchill Dew Point Humidity Pressure Visibility Wind Dir Wind Speed Gust Speed Precip Events Conditions
12:58 AM 10.8 °F -2.8 °F 5.5 °F 79% 30.53 in 10.0 mi ESE 10.4 mph - N/A   Clear
1:37 AM 12.2 °F 1.7 °F 6.8 °F 79% 30.38 in 10.0 mi SSE 6.9 mph - N/A   Partly Cloudy
1:58 AM 10.8 °F -1.1 °F 7.0 °F 85% 30.53 in 10.0 mi South 8.1 mph - N/A   Scattered Clouds
2:03 AM 10.4 °F -0.4 °F 6.8 °F 85% 30.39 in 10.0 mi South 6.9 mph - N/A   Mostly Cloudy
2:08 AM 10.4 °F -1.5 °F 6.8 °F 85% 30.39 in 10.0 mi SSE 8.1 mph - N/A   Scattered Clouds
2:13 AM 10.4 °F -1.5 °F 8.6 °F 92% 30.39 in 9.0 mi SSE 8.1 mph - N/A   Scattered Clouds
2:18 AM 10.4 °F -1.5 °F 6.8 °F 85% 30.38 in 9.0 mi SSE 8.1 mph - N/A   Mostly Cloudy
2:28 AM 10.4 °F -1.5 °F 6.8 °F 85% 30.38 in 6.0 mi SE 8.1 mph - N/A   Mostly Cloudy
2:32 AM 10.4 °F 0.8 °F 6.8 °F 85% 30.38 in 4.0 mi ESE 5.8 mph - N/A Snow Light Snow
2:37 AM 10.4 °F 0.8 °F 6.8 °F 85% 30.38 in 3.0 mi ESE 5.8 mph - N/A Snow Light Snow
2:47 AM 10.4 °F -1.5 °F 6.8 °F 85% 30.38 in 3.0 mi SE 8.1 mph - N/A Snow Light Snow
2:52 AM 10.4 °F 2.2 °F 6.8 °F 85% 30.38 in 5.0 mi ESE 4.6 mph - N/A Snow Light Snow
2:55 AM 10.4 °F 2.2 °F 6.8 °F 85% 30.38 in 5.0 mi SE 4.6 mph - N/A   Overcast
2:58 AM 10.4 °F 0.8 °F 6.8 °F 85% 30.53 in 5.0 mi SE 5.8 mph - 0.00 in   Overcast
3:03 AM 10.4 °F 0.8 °F 6.8 °F 85% 30.38 in 6.0 mi SE 5.8 mph - N/A   Overcast
3:13 AM 10.4 °F 0.8 °F 6.8 °F 85% 30.38 in 5.0 mi ESE 5.8 mph - N/A Snow Light Snow
3:18 AM 10.4 °F 0.8 °F 6.8 °F 85% 30.38 in 4.0 mi SE 5.8 mph - N/A Snow Light Snow
3:23 AM 10.4 °F 4.0 °F 6.8 °F 85% 30.38 in 5.0 mi SE 3.5 mph - N/A Snow Light Snow
3:43 AM 12.2 °F 4.3 °F 8.6 °F 85% 30.38 in 4.0 mi ESE 4.6 mph - N/A Snow Light Snow
3:58 AM 11.7 °F 3.7 °F 7.9 °F 85% 30.53 in 3.0 mi ESE 4.6 mph - 0.00 in Snow Light Snow
4:07 AM 12.2 °F 2.9 °F 6.8 °F 79% 30.38 in 4.0 mi ESE 5.8 mph - N/A   Overcast
4:12 AM 12.2 °F 1.7 °F 6.8 °F 79% 30.38 in 5.0 mi ESE 6.9 mph - N/A   Haze
4:26 AM 12.2 °F 1.7 °F 6.8 °F 79% 30.38 in 6.0 mi ESE 6.9 mph - N/A Snow Light Snow
4:36 AM 12.2 °F 2.9 °F 6.8 °F 79% 30.37 in 7.0 mi ESE 5.8 mph - N/A Snow Light Snow
4:39 AM 12.2 °F 2.9 °F 6.8 °F 79% 30.37 in 6.0 mi ESE 5.8 mph - N/A   Haze
4:43 AM 12.2 °F 2.9 °F 6.8 °F 79% 30.37 in 5.0 mi ESE 5.8 mph - N/A Snow Light Snow
4:46 AM 12.2 °F 1.7 °F 6.8 °F 79% 30.37 in 6.0 mi ESE 6.9 mph - N/A   Haze
4:52 AM 12.2 °F 0.7 °F 6.8 °F 79% 30.37 in 7.0 mi ESE 8.1 mph - N/A Snow Light Snow
4:57 AM 10.4 °F -1.5 °F 6.8 °F 85% 30.37 in 7.0 mi ESE 8.1 mph - N/A Snow Light Snow
4:58 AM 11.5 °F -0.2 °F 7.0 °F 82% 30.54 in 7.0 mi ESE 8.1 mph - 0.00 in Snow Light Snow
5:13 AM 10.4 °F -3.3 °F 5.0 °F 79% 30.37 in 10.0 mi ESE 10.4 mph - N/A Snow Light Snow
5:18 AM 10.4 °F -3.3 °F 5.0 °F 79% 30.37 in 10.0 mi ESE 10.4 mph - N/A Snow Light Snow
5:20 AM 10.4 °F -3.3 °F 5.0 °F 79% 30.37 in 10.0 mi ESE 10.4 mph - N/A   Overcast
5:25 AM 10.4 °F -3.3 °F 5.0 °F 79% 30.38 in 10.0 mi ESE 10.4 mph - N/A   Mostly Cloudy
5:35 AM 10.4 °F -3.3 °F 5.0 °F 79% 30.38 in 10.0 mi ESE 10.4 mph - N/A   Scattered Clouds
5:58 AM 10.2 °F -3.5 °F 4.6 °F 78% 30.55 in 10.0 mi ESE 10.4 mph - 0.00 in   Clear
6:28 AM 10.4 °F -3.3 °F 5.0 °F 79% 30.39 in 10.0 mi ESE 10.4 mph - N/A   Mostly Cloudy
6:43 AM 10.4 °F -3.3 °F 5.0 °F 79% 30.39 in 10.0 mi ESE 10.4 mph - N/A   Overcast
6:58 AM 10.6 °F -3.1 °F 5.2 °F 79% 30.55 in 10.0 mi ESE 10.4 mph - N/A   Overcast
7:03 AM 10.4 °F -3.3 °F 5.0 °F 79% 30.38 in 10.0 mi ESE 10.4 mph - N/A   Overcast
7:10 AM 10.4 °F -2.4 °F 5.0 °F 79% 30.39 in 10.0 mi ESE 9.2 mph - N/A Snow Light Snow
7:38 AM 10.4 °F -4.1 °F 5.0 °F 79% 30.38 in 10.0 mi ESE 11.5 mph - N/A   Overcast
7:58 AM 9.9 °F -5.5 °F 4.3 °F 78% 30.55 in 5.0 mi ESE 12.7 mph - 0.00 in   Overcast
8:38 AM 10.4 °F -3.3 °F 3.2 °F 73% 30.39 in 10.0 mi ESE 10.4 mph - N/A   Mostly Cloudy
8:48 AM 10.4 °F -3.3 °F 3.2 °F 73% 30.40 in 10.0 mi East 10.4 mph - N/A   Scattered Clouds
8:58 AM 10.4 °F -3.3 °F 3.4 °F 73% 30.58 in 10.0 mi ESE 10.4 mph - N/A   Scattered Clouds
9:58 AM 12.2 °F 0.7 °F 4.8 °F 72% 30.58 in 10.0 mi ESE 8.1 mph - N/A   Scattered Clouds
10:33 AM 12.2 °F -0.2 °F 5.0 °F 73% 30.42 in 4.0 mi ESE 9.2 mph - N/A   Haze
10:58 AM 14.0 °F 2.9 °F 5.4 °F 69% 30.59 in 6.0 mi East 8.1 mph - N/A   Haze
11:58 AM 17.2 °F 11.9 °F 9.1 °F 71% 30.56 in 6.0 mi NNW 3.5 mph - N/A   Haze
12:58 PM 17.8 °F 12.5 °F 10.0 °F 72% 30.56 in 10.0 mi North 3.5 mph - N/A   Partly Cloudy
1:58 PM 19.9 °F 12.1 °F 11.5 °F 70% 30.53 in 10.0 mi NNW 5.8 mph - N/A   Partly Cloudy
2:58 PM 19.0 °F 11.1 °F 10.8 °F 70% 30.53 in 10.0 mi NW 5.8 mph - N/A   Scattered Clouds
3:58 PM 18.1 °F 8.9 °F 10.2 °F 71% 30.53 in 10.0 mi NW 6.9 mph - N/A   Clear
4:58 PM 15.6 °F 7.0 °F 9.3 °F 76% 30.55 in 10.0 mi NW 5.8 mph - N/A   Clear
5:58 PM 13.8 °F 3.7 °F 8.4 °F 79% 30.56 in 10.0 mi NNW 6.9 mph - N/A   Clear
6:58 PM 12.6 °F 3.4 °F 8.1 °F 82% 30.57 in 10.0 mi NNW 5.8 mph - N/A   Clear
7:58 PM 10.9 °F - 7.3 °F 85% 30.60 in 10.0 mi Calm Calm - N/A   Clear
8:24 PM 8.6 °F - 5.0 °F 85% 30.40 in 5.0 mi ESE 1.2 mph - N/A   Clear
8:38 PM 8.6 °F - 5.0 °F 85% 30.40 in 6.0 mi East 2.3 mph - N/A   Clear
8:58 PM 9.9 °F 0.2 °F 6.1 °F 85% 30.61 in 10.0 mi ESE 5.8 mph - N/A   Clear
9:58 PM 9.9 °F -1.1 °F 4.8 °F 80% 30.59 in 10.0 mi ESE 6.9 mph - N/A   Clear
10:58 PM 9.0 °F -0.9 °F 4.1 °F 81% 30.58 in 10.0 mi ESE 5.8 mph - N/A   Clear
11:58 PM 8.2 °F -4.1 °F 3.6 °F 81% 30.58 in 10.0 mi ESE 8.1 mph - N/A   Clear